• In Belarus
  • List of Countries
  • For 7 days
  • Water Temperature
  • Weather Map
  • Weather Widgets
  • user-avatar
    Login

    Hourly Weather Jalalabad

    Today, 20 August, Tuesday

    Time Temperature Precipitation Wind Pressure Humidity
    00:00 +32°C° 0.1 mm 2 mps 708 mmHg 55%
    01:00 +31°C° 0.1 mm 1 mps 708 mmHg 57%
    02:00 +31°C° 0.1 mm 1 mps 708 mmHg 59%
    03:00 +28°C° 0.1 mm 0 mps 708 mmHg 60%
    04:00 +28°C° 0.1 mm 0 mps 708 mmHg 61%
    05:00 +28°C° 0 mm 0 mps 708 mmHg 63%
    06:00 +28°C° 0.1 mm 0 mps 708 mmHg 60%
    07:00 +28°C° 0.1 mm 0 mps 708 mmHg 57%
    08:00 +29°C° 0.1 mm 0 mps 708 mmHg 54%
    09:00 +30°C° 0 mm 0 mps 708 mmHg 47%
    10:00 +33°C° 0 mm 1 mps 708 mmHg 39%
    11:00 +34°C° 0 mm 1 mps 708 mmHg 32%
    12:00 +35°C° 0 mm 1 mps 707 mmHg 28%
    13:00 +36°C° 0 mm 1 mps 707 mmHg 23%
    14:00 +37°C° 0 mm 1 mps 707 mmHg 18%
    15:00 +39°C° 0 mm 1 mps 706 mmHg 17%
    16:00 +39°C° 0 mm 2 mps 706 mmHg 16%
    17:00 +39°C° 0 mm 2 mps 706 mmHg 15%
    18:00 +38°C° 0 mm 2 mps 706 mmHg 19%
    19:00 +36°C° 0 mm 1 mps 706 mmHg 23%
    20:00 +35°C° 0 mm 1 mps 706 mmHg 27%
    21:00 +34°C° 0 mm 1 mps 706 mmHg 32%
    22:00 +33°C° 0 mm 1 mps 706 mmHg 36%
    23:00 +33°C° 0 mm 1 mps 706 mmHg 40%

    Tomorrow, 21 August, Wednesday

    Time Temperature Precipitation Wind Pressure Humidity
    00:00 +32°C° 0 mm 1 mps 706 mmHg 42%
    01:00 +32°C° 0 mm 1 mps 705 mmHg 44%
    02:00 +29°C° 0 mm 0 mps 705 mmHg 46%
    03:00 +31°C° 0 mm 1 mps 705 mmHg 44%
    04:00 +30°C° 0 mm 1 mps 705 mmHg 43%
    05:00 +30°C° 0 mm 1 mps 705 mmHg 41%
    06:00 +30°C° 0 mm 1 mps 705 mmHg 36%
    07:00 +31°C° 0 mm 1 mps 706 mmHg 30%
    08:00 +32°C° 0 mm 1 mps 706 mmHg 25%
    09:00 +33°C° 0 mm 1 mps 706 mmHg 21%
    10:00 +35°C° 0 mm 1 mps 706 mmHg 17%
    11:00 +37°C° 0 mm 2 mps 706 mmHg 13%
    12:00 +37°C° 0 mm 1 mps 706 mmHg 12%
    13:00 +39°C° 0 mm 1 mps 706 mmHg 11%
    14:00 +39°C° 0 mm 1 mps 705 mmHg 10%
    15:00 +40°C° 0 mm 1 mps 705 mmHg 10%
    16:00 +40°C° 0 mm 2 mps 705 mmHg 11%
    17:00 +40°C° 0 mm 2 mps 705 mmHg 11%
    18:00 +39°C° 0 mm 2 mps 705 mmHg 15%
    19:00 +37°C° 0 mm 1 mps 705 mmHg 20%
    20:00 +35°C° 0 mm 1 mps 705 mmHg 24%
    21:00 +35°C° 0 mm 1 mps 705 mmHg 30%
    22:00 +34°C° 0 mm 1 mps 705 mmHg 35%
    23:00 +33°C° 0 mm 1 mps 705 mmHg 40%

    Day after tomorrow, 22 August, Thursday

    Time Temperature Precipitation Wind Pressure Humidity
    00:00 +33°C° 0 mm 1 mps 705 mmHg 42%
    01:00 +30°C° 0 mm 0 mps 705 mmHg 44%
    02:00 +30°C° 0 mm 0 mps 705 mmHg 46%
    03:00 +29°C° 0 mm 0 mps 705 mmHg 46%
    04:00 +29°C° 0 mm 0 mps 705 mmHg 46%
    05:00 +28°C° 0 mm 0 mps 705 mmHg 47%
    06:00 +29°C° 0 mm 0 mps 705 mmHg 42%
    07:00 +32°C° 0 mm 1 mps 705 mmHg 36%
    08:00 +33°C° 0 mm 1 mps 706 mmHg 31%
    09:00 +34°C° 0 mm 1 mps 706 mmHg 28%
    10:00 +35°C° 0 mm 1 mps 706 mmHg 25%
    11:00 +36°C° 0 mm 1 mps 706 mmHg 22%
    12:00 +37°C° 0 mm 1 mps 706 mmHg 20%
    13:00 +39°C° 0 mm 1 mps 705 mmHg 17%
    14:00 +40°C° 0 mm 2 mps 705 mmHg 15%
    15:00 +40°C° 0 mm 2 mps 705 mmHg 16%
    16:00 +42°C° 0 mm 3 mps 705 mmHg 18%
    17:00 +42°C° 0 mm 4 mps 705 mmHg 19%
    18:00 +39°C° 0 mm 3 mps 705 mmHg 24%
    19:00 +38°C° 0 mm 3 mps 705 mmHg 30%
    20:00 +37°C° 0 mm 2 mps 705 mmHg 36%
    21:00 +36°C° 0 mm 2 mps 705 mmHg 38%
    22:00 +35°C° 0 mm 2 mps 705 mmHg 40%
    23:00 +35°C° 0 mm 2 mps 705 mmHg 43%

    23 August, Friday

    Time Temperature Precipitation Wind Pressure Humidity
    00:00 +33°C° 0 mm 1 mps 705 mmHg 45%
    01:00 +33°C° 0 mm 1 mps 705 mmHg 47%
    02:00 +30°C° 0 mm 0 mps 705 mmHg 49%
    03:00 +30°C° 0 mm 0 mps 705 mmHg 50%
    04:00 +29°C° 0 mm 0 mps 705 mmHg 51%
    05:00 +29°C° 0 mm 0 mps 705 mmHg 53%
    06:00 +30°C° 0 mm 0 mps 705 mmHg 49%
    07:00 +32°C° 0 mm 1 mps 705 mmHg 46%
    08:00 +33°C° 0 mm 1 mps 706 mmHg 43%
    09:00 +34°C° 0 mm 1 mps 706 mmHg 40%
    10:00 +35°C° 0 mm 1 mps 706 mmHg 37%
    11:00 +36°C° 0 mm 1 mps 706 mmHg 34%
    12:00 +38°C° 0 mm 2 mps 705 mmHg 31%
    13:00 +39°C° 0 mm 2 mps 705 mmHg 27%
    14:00 +40°C° 0 mm 2 mps 705 mmHg 23%
    15:00 +40°C° 0 mm 3 mps 704 mmHg 23%
    16:00 +42°C° 0 mm 3 mps 704 mmHg 22%
    17:00 +42°C° 0 mm 4 mps 704 mmHg 22%
    18:00 +40°C° 0 mm 3 mps 704 mmHg 27%
    19:00 +38°C° 0 mm 3 mps 705 mmHg 32%
    20:00 +37°C° 0 mm 2 mps 705 mmHg 37%
    21:00 +36°C° 0 mm 2 mps 705 mmHg 40%
    22:00 +35°C° 0 mm 1 mps 705 mmHg 42%
    23:00 +34°C° 0 mm 1 mps 705 mmHg 45%

    24 August, Saturday

    Time Temperature Precipitation Wind Pressure Humidity
    00:00 +34°C° 0 mm 1 mps 705 mmHg 46%
    01:00 +33°C° 0 mm 1 mps 705 mmHg 48%
    02:00 +31°C° 0 mm 0 mps 705 mmHg 50%
    03:00 +30°C° 0 mm 0 mps 705 mmHg 50%
    04:00 +30°C° 0 mm 0 mps 705 mmHg 49%
    05:00 +30°C° 0 mm 0 mps 705 mmHg 49%
    06:00 +30°C° 0 mm 0 mps 705 mmHg 45%
    07:00 +33°C° 0 mm 1 mps 705 mmHg 40%
    08:00 +34°C° 0 mm 1 mps 706 mmHg 35%
    09:00 +35°C° 0 mm 1 mps 706 mmHg 32%
    10:00 +36°C° 0 mm 1 mps 706 mmHg 29%
    11:00 +37°C° 0 mm 1 mps 706 mmHg 25%
    12:00 +39°C° 0 mm 1 mps 705 mmHg 22%
    13:00 +40°C° 0 mm 1 mps 705 mmHg 19%
    14:00 +41°C° 0 mm 1 mps 705 mmHg 16%
    15:00 +41°C° 0 mm 2 mps 704 mmHg 16%
    16:00 +42°C° 0 mm 2 mps 704 mmHg 16%
    17:00 +43°C° 0 mm 3 mps 704 mmHg 16%
    18:00 +41°C° 0 mm 2 mps 704 mmHg 21%
    19:00 +39°C° 0 mm 2 mps 704 mmHg 26%
    20:00 +38°C° 0 mm 2 mps 705 mmHg 31%
    21:00 +37°C° 0 mm 2 mps 705 mmHg 34%
    22:00 +37°C° 0 mm 2 mps 705 mmHg 37%
    23:00 +36°C° 0 mm 2 mps 705 mmHg 40%

    25 August, Sunday

    Time Temperature Precipitation Wind Pressure Humidity
    00:00 +35°C° 0 mm 1 mps 705 mmHg 42%
    01:00 +34°C° 0 mm 1 mps 704 mmHg 45%
    02:00 +31°C° 0 mm 0 mps 704 mmHg 48%
    03:00 +33°C° 0 mm 1 mps 704 mmHg 49%
    04:00 +33°C° 0 mm 1 mps 704 mmHg 50%
    05:00 +32°C° 0 mm 1 mps 704 mmHg 51%
    06:00 +33°C° 0 mm 1 mps 705 mmHg 49%
    07:00 +34°C° 0 mm 1 mps 705 mmHg 46%
    08:00 +34°C° 0 mm 1 mps 705 mmHg 44%
    09:00 +35°C° 0 mm 1 mps 705 mmHg 41%
    10:00 +37°C° 0 mm 2 mps 705 mmHg 38%
    11:00 +38°C° 0 mm 2 mps 705 mmHg 36%
    12:00 +39°C° 0 mm 2 mps 705 mmHg 33%
    13:00 +40°C° 0 mm 3 mps 705 mmHg 29%
    14:00 +42°C° 0 mm 3 mps 705 mmHg 26%
    15:00 +42°C° 0 mm 3 mps 704 mmHg 26%
    16:00 +42°C° 0 mm 4 mps 704 mmHg 27%
    17:00 +42°C° 0 mm 4 mps 704 mmHg 27%
    18:00 +41°C° 0 mm 4 mps 704 mmHg 31%
    19:00 +40°C° 0 mm 4 mps 704 mmHg 35%
    20:00 +38°C° 0 mm 3 mps 705 mmHg 39%
    21:00 +37°C° 0 mm 3 mps 705 mmHg 41%
    22:00 +37°C° 0 mm 3 mps 705 mmHg 43%
    23:00 +36°C° 0 mm 2 mps 706 mmHg 45%
    Show more